Weather History for Atka, AK

Change the Weather History Date:

Wednesday, May 2, 2012

  Actual Average (PADK) Record (PADK)
Temperature  
Mean Temperature 47 °F -  
Max Temperature 55 °F 42 °F 53 °F (1952)
Min Temperature 39 °F 33 °F 22 °F (1971)
Degree Days  
Heating Degree Days 18    
Moisture  
Dew Point 38 °F    
Average Humidity 78    
Maximum Humidity 93    
Minimum Humidity 47    
Precipitation  
Precipitation 0.00 in - - ()
Sea Level Pressure  
Sea Level Pressure 30.25 in    
Wind  
Wind Speed 13 mph (NW)    
Max Wind Speed 25 mph    
Max Gust Speed 32 mph    
Visibility 7 miles    
Events      
Averages and records for this station are not official NWS values.
T = Trace of Precipitation, MM = Missing Value Source: NWS Daily Summary

Daily Weather History Graph

Daily Weather History Graph

Search for Another Location

Airport:

Trip Planner

Search our weather history database for the weather conditions in past years. The results will help you decide how hot, cold, wet, or windy it might be!

Date:

Astronomy

May. 02, 2012 Rise Set
Actual Time 7:03 AM HADT 10:05 PM HADT
Civil Twilight 6:23 AM HADT 10:45 PM HADT
Nautical Twilight 5:31 AM HADT 11:37 PM HADT
Astronomical Twilight 4:25 AM HADT 12:45 AM HADT
Moon 6:11 PM HADT (5/2) 5:08 AM HADT (5/2)
Length of Visible Light 16h 21m
Length of Day
15h 02m
Waxing Gibbous, 85% of the Moon is Illuminated
May 2
Waxing Gibbous
May 5
Full
May 12
Last Quarter
May 20
New
May 28
First Quarter

Hourly Weather History & Observations

Time (HADT) Temp. Windchill Dew Point Humidity Pressure Visibility Wind Dir Wind Speed Gust Speed Precip Events Conditions
12:16 AM 39.2 °F 34.2 °F 35.6 °F 87% 30.32 in 10.0 mi WSW 6.9 mph - N/A   Overcast
12:36 AM 39.2 °F 35.9 °F 35.6 °F 87% 30.31 in 10.0 mi NW 4.6 mph - N/A   Overcast
12:56 AM 39.2 °F 35.0 °F 35.6 °F 87% 30.30 in 10.0 mi NNW 5.8 mph - N/A   Overcast
1:16 AM 39.2 °F 30.5 °F 35.6 °F 87% 30.30 in 10.0 mi WSW 16.1 mph - N/A   Overcast
1:36 AM 39.2 °F 33.0 °F 35.6 °F 87% 30.29 in 10.0 mi WSW 9.2 mph - N/A   Overcast
1:56 AM 41.0 °F 36.4 °F 35.6 °F 81% 30.30 in 10.0 mi West 6.9 mph - N/A   Overcast
2:16 AM 39.2 °F 34.2 °F 35.6 °F 87% 30.30 in 5.0 mi NW 6.9 mph - N/A   Overcast
2:36 AM 39.2 °F 34.2 °F 35.6 °F 87% 30.29 in 6.0 mi West 6.9 mph - N/A   Overcast
2:56 AM 41.0 °F 34.7 °F 37.4 °F 87% 30.29 in 5.0 mi WNW 10.4 mph - N/A   Overcast
3:16 AM 41.0 °F 34.3 °F 37.4 °F 87% 30.28 in 4.0 mi WNW 11.5 mph - N/A   Overcast
3:36 AM 39.2 °F 32.5 °F 37.4 °F 93% 30.28 in 4.0 mi NW 10.4 mph - N/A   Overcast
3:56 AM 39.2 °F 32.5 °F 37.4 °F 93% 30.28 in 2.5 mi NW 10.4 mph - N/A   Overcast
4:16 AM 39.2 °F 32.5 °F 37.4 °F 93% 30.28 in 2.5 mi NW 10.4 mph - N/A   Overcast
4:36 AM 39.2 °F 31.6 °F 37.4 °F 93% 30.28 in 2.5 mi NW 12.7 mph 17.3 mph N/A   Overcast
4:56 AM 39.2 °F 31.6 °F 37.4 °F 93% 30.27 in 3.0 mi NW 12.7 mph - N/A   Overcast
5:16 AM 39.2 °F 31.2 °F 37.4 °F 93% 30.27 in 4.0 mi NW 13.8 mph - N/A   Overcast
5:36 AM 39.2 °F 30.5 °F 37.4 °F 93% 30.27 in 3.0 mi NW 16.1 mph 21.9 mph N/A   Overcast
5:56 AM 39.2 °F 30.5 °F 37.4 °F 93% 30.26 in 1.8 mi NW 16.1 mph 20.7 mph N/A   Overcast
6:16 AM 39.2 °F 30.2 °F 37.4 °F 93% 30.26 in 1.8 mi NW 17.3 mph 20.7 mph N/A   Overcast
6:36 AM 39.2 °F 30.5 °F 37.4 °F 93% 30.27 in 1.8 mi NW 16.1 mph - N/A   Overcast
6:56 AM 39.2 °F 30.5 °F 37.4 °F 93% 30.26 in 1.0 mi NW 16.1 mph - N/A   Overcast
7:16 AM 39.2 °F 30.8 °F 37.4 °F 93% 30.27 in 0.8 mi NW 15.0 mph - N/A   Overcast
7:36 AM 39.2 °F 30.2 °F 37.4 °F 93% 30.27 in 1.2 mi NW 17.3 mph 23.0 mph N/A   Overcast
7:56 AM 39.2 °F 30.8 °F 37.4 °F 93% 30.28 in 1.0 mi NW 15.0 mph - N/A   Overcast
8:16 AM 39.2 °F 30.8 °F 37.4 °F 93% 30.28 in 1.0 mi NW 15.0 mph - N/A   Overcast
8:36 AM 39.2 °F 28.7 °F 37.4 °F 93% 30.29 in 0.8 mi WNW 23.0 mph 27.6 mph N/A   Overcast
8:56 AM 39.2 °F 28.7 °F 37.4 °F 93% 30.29 in 1.2 mi WNW 23.0 mph 27.6 mph N/A   Overcast
9:16 AM 39.2 °F 29.8 °F 37.4 °F 93% 30.30 in 0.2 mi WNW 18.4 mph 26.5 mph N/A   Overcast
9:36 AM 39.2 °F 29.8 °F 37.4 °F 93% 30.29 in 0.2 mi WNW 18.4 mph - N/A   Overcast
9:56 AM 39.2 °F 30.2 °F 37.4 °F 93% 30.29 in 0.5 mi WNW 17.3 mph - N/A   Overcast
10:16 AM 39.2 °F 31.6 °F 37.4 °F 93% 30.29 in 0.5 mi WNW 12.7 mph - N/A   Overcast
10:36 AM 39.2 °F 30.5 °F 37.4 °F 93% 30.29 in 0.8 mi NW 16.1 mph - N/A   Overcast
10:56 AM 42.8 °F 34.8 °F 39.2 °F 87% 30.30 in 3.0 mi WNW 17.3 mph 24.2 mph N/A   Overcast
11:16 AM 42.8 °F 35.1 °F 39.2 °F 87% 30.29 in 2.0 mi WNW 16.1 mph - N/A   Overcast
11:36 AM 42.8 °F 34.5 °F 39.2 °F 87% 30.29 in 2.5 mi WNW 18.4 mph 25.3 mph N/A   Overcast
11:56 AM 42.8 °F 34.8 °F 41.0 °F 93% 30.29 in 5.0 mi NW 17.3 mph - N/A   Overcast
12:16 PM 44.6 °F 38.4 °F 42.8 °F 93% 30.27 in 3.0 mi WNW 12.7 mph 20.7 mph N/A   Overcast
12:36 PM 44.6 °F 38.1 °F 42.8 °F 93% 30.27 in 5.0 mi WNW 13.8 mph - N/A   Overcast
12:56 PM 48.2 °F - 44.6 °F 87% 30.27 in 10.0 mi WNW 10.4 mph - N/A   Mostly Cloudy
1:16 PM 51.8 °F - 44.6 °F 76% 30.26 in 10.0 mi NW 12.7 mph - N/A   Clear
1:36 PM 53.6 °F - 44.6 °F 72% 30.25 in 10.0 mi NNW 15.0 mph 18.4 mph N/A   Clear
1:56 PM 55.4 °F - 42.8 °F 63% 30.25 in 10.0 mi NW 12.7 mph - N/A   Partly Cloudy
2:16 PM 53.6 °F - 42.8 °F 67% 30.25 in 10.0 mi NNW 16.1 mph - N/A   Partly Cloudy
2:36 PM 55.4 °F - 42.8 °F 63% 30.24 in 10.0 mi NNW 18.4 mph - N/A   Clear
2:56 PM 53.6 °F - 41.0 °F 62% 30.24 in 10.0 mi NNW 16.1 mph - N/A   Clear
3:16 PM 55.4 °F - 42.8 °F 63% 30.23 in 10.0 mi NNW 16.1 mph - N/A   Clear
3:36 PM 55.4 °F - 41.0 °F 58% 30.23 in 10.0 mi NW 16.1 mph 19.6 mph N/A   Clear
3:56 PM 53.6 °F - 41.0 °F 62% 30.23 in 10.0 mi NNW 17.3 mph 23.0 mph N/A   Clear
4:16 PM 53.6 °F - 39.2 °F 58% 30.22 in 10.0 mi NNW 15.0 mph - N/A   Clear
4:36 PM 53.6 °F - 37.4 °F 54% 30.22 in 10.0 mi NW 13.8 mph - N/A   Clear
4:56 PM 55.4 °F - 37.4 °F 51% 30.21 in 10.0 mi NW 15.0 mph - N/A   Clear
5:16 PM 55.4 °F - 35.6 °F 47% 30.20 in 10.0 mi NW 13.8 mph 20.7 mph N/A   Clear
5:36 PM 55.4 °F - 37.4 °F 51% 30.20 in 10.0 mi WNW 16.1 mph 20.7 mph N/A   Clear
5:56 PM 55.4 °F - 35.6 °F 47% 30.19 in 10.0 mi WNW 16.1 mph 19.6 mph N/A   Clear
6:16 PM 53.6 °F - 35.6 °F 51% 30.19 in 10.0 mi WNW 13.8 mph - N/A   Clear
6:36 PM 53.6 °F - 35.6 °F 51% 30.19 in 10.0 mi NW 15.0 mph - N/A   Clear
6:56 PM 51.8 °F - 33.8 °F 50% 30.18 in 10.0 mi NW 16.1 mph - N/A   Clear
7:16 PM 51.8 °F - 33.8 °F 50% 30.18 in 10.0 mi NW 17.3 mph - N/A   Clear
7:36 PM 50.0 °F - 32.0 °F 50% 30.19 in 10.0 mi WNW 15.0 mph 19.6 mph N/A   Clear
7:56 PM 48.2 °F - 32.0 °F 54% 30.19 in 10.0 mi WNW 13.8 mph 19.6 mph N/A   Scattered Clouds
8:16 PM 46.4 °F 39.5 °F 30.2 °F 53% 30.19 in 10.0 mi NW 17.3 mph - N/A   Partly Cloudy
8:36 PM 44.6 °F 37.4 °F 33.8 °F 66% 30.19 in 10.0 mi WNW 16.1 mph - N/A   Mostly Cloudy
8:56 PM 44.6 °F 37.2 °F 33.8 °F 66% 30.20 in 10.0 mi NW 17.3 mph - N/A   Overcast
9:16 PM 42.8 °F 36.2 °F 33.8 °F 70% 30.20 in 10.0 mi WNW 12.7 mph 17.3 mph N/A   Overcast
9:36 PM 42.8 °F 35.8 °F 35.6 °F 76% 30.21 in 9.0 mi NW 13.8 mph 18.4 mph N/A   Overcast
9:56 PM 42.8 °F 36.2 °F 37.4 °F 81% 30.21 in 8.0 mi WNW 12.7 mph - N/A   Overcast
10:16 PM 42.8 °F 35.8 °F 37.4 °F 81% 30.21 in 9.0 mi WNW 13.8 mph 27.6 mph N/A   Overcast
10:36 PM 42.8 °F 36.2 °F 37.4 °F 81% 30.21 in 10.0 mi WNW 12.7 mph 21.9 mph N/A   Overcast
10:56 PM 42.8 °F 35.1 °F 37.4 °F 81% 30.22 in 10.0 mi WNW 16.1 mph 23.0 mph N/A   Overcast
11:16 PM 42.8 °F 34.8 °F 37.4 °F 81% 30.22 in 10.0 mi WNW 17.3 mph 24.2 mph N/A   Overcast
11:36 PM 42.8 °F 33.1 °F 35.6 °F 76% 30.22 in 10.0 mi WNW 25.3 mph 32.2 mph N/A   Overcast
11:56 PM 41.0 °F 31.4 °F 35.6 °F 81% 30.22 in 10.0 mi WNW 21.9 mph 29.9 mph N/A   Overcast